Powrót do katalogu

STARLINK-34843

AktywnyŁącznośćVLEO
NORAD 65201·PAYLOAD·🇺🇸 United States

Wystrzelony Aug 14, 2025 z Cape Canaveral Space Force Station

Loading…

Następne Przeloty (najbliższe 24 godziny)

TLE

ŚwieżeSource: CelesTrak SupGP

Epoka: Sep 14, 2026, 21:06 UTC

1 65201C 25176D   26257.87965278 -.00001945  00000+0 -57497-4 0  2572
2 65201  53.1593 349.8525 0001271  81.3761 300.0090 15.34375370    16

Śledź STARLINK-34843 w czasie rzeczywistym z AllMySat

Download on the App Store